Flag for France Past Weather in Boulogne-Billancourt, Île-de-France, France — Yesterday and Last 2 Weeks

Now
88 °F

Passing clouds.


Feels Like: 89 °F
Forecast: 71 / 96 °F
Wind: 5 mph from North

Location: Paris-Orly

Current Time: Aug 26, 2016 at 8:43:00 PM

Latest Report: Aug 26, 2016 at 8:00 PM


Visibility: N/A

Pressure: 29.98 "Hg

Humidity: 46%

Dew Point: 64 °F

Location of Boulogne-BillancourtLocation

Past Weather in Boulogne-Billancourt — Graph

°F

Boulogne-Billancourt Temperature Yesterday

Maximum temperature yesterday: 97 °F (at 4:00 PM)
Minimum temperature yesterday: 64 °F (at 7:00 AM)
Average temperature yesterday: 81 °F

High & Low Weather Summary for the Past Weeks

 TemperatureHumidityPressure
High97 °F (Aug 25, 4:00 PM)100% (Aug 18, 8:11 AM)30.36 "Hg (Aug 18, 8:11 AM)
Low55 °F (Aug 12, 4:30 AM)25% (Aug 13, 4:30 PM)29.80 "Hg (Aug 17, 6:00 PM)
Average72 °F64%30.07 "Hg
* Reported Aug 11 7:00 PM — Aug 26 7:30 PM, Boulogne-Billancourt, Weather by CustomWeather, © 2016

Note: Actual official high and low records may vary slightly from our data, if they occured in-between our weather recording intervals... More about our weather records

Advertising

Boulogne-Billancourt Weather History for the Previous 24 Hours

Scroll right to see more
 ConditionsComfort  
Time TempWeatherWind HumidityBarometerVisibility
7:30 PM
Fri, Aug 26
90 °FSunny.6 mph43%29.98 "Hg10 mi
7:00 PM91 °FSunny.6 mph38%29.98 "Hg10 mi
6:30 PM91 °FPassing clouds.6 mph38%29.98 "HgN/A
6:00 PM93 °FSunny.3 mph36%29.98 "Hg10 mi
5:30 PM93 °FPassing clouds.5 mph36%29.98 "HgN/A
5:00 PM91 °FSunny.3 mph41%30.01 "Hg10 mi
4:30 PM93 °FPassing clouds.6 mph36%30.01 "HgN/A
4:00 PM90 °FPassing clouds.6 mph43%30.01 "HgN/A
3:30 PM91 °FSunny.2 mph41%30.01 "Hg10 mi
2:30 PM91 °FSunny.3 mph41%30.01 "Hg10 mi
2:00 PM90 °FSunny.2 mph43%30.01 "Hg10 mi
1:30 PM88 °FSunny.3 mph49%30.01 "Hg10 mi
1:00 PM86 °FSunny.2 mph52%30.01 "Hg10 mi
12:30 PM86 °FSunny.2 mph52%30.01 "Hg10 mi
12:00 PM84 °FSunny.3 mph55%30.01 "Hg10 mi
11:30 AM82 °FPassing clouds.5 mph58%30.01 "HgN/A
11:00 AM81 °FPassing clouds.6 mph62%30.01 "HgN/A
10:30 AM79 °FPassing clouds.8 mph61%30.01 "HgN/A
10:00 AM77 °FSunny.9 mph65%30.01 "Hg10 mi
9:30 AM77 °FPassing clouds.8 mph65%30.01 "HgN/A
9:00 AM77 °FSunny.6 mph69%30.01 "Hg10 mi
8:30 AM75 °FPassing clouds.7 mph74%29.98 "HgN/A
8:00 AM72 °FSunny.2 mph78%29.98 "Hg10 mi
7:30 AM70 °FClear.2 mph83%29.98 "Hg10 mi
7:00 AM70 °FClear.1 mph78%29.98 "Hg10 mi
6:30 AM72 °FClear.1 mph78%29.98 "Hg10 mi
6:00 AM68 °FPassing clouds.5 mph83%29.98 "HgN/A
5:30 AM68 °FClear.No wind88%29.95 "Hg10 mi
5:00 AM70 °FClear.2 mph83%29.95 "Hg10 mi
4:30 AM70 °FClear.2 mph83%29.95 "Hg10 mi
4:00 AM72 °FClear.3 mph78%29.95 "Hg10 mi
3:30 AM72 °FClear.2 mph83%29.95 "Hg10 mi
3:00 AM72 °FClear.3 mph78%29.95 "Hg10 mi
2:30 AM72 °FClear.2 mph78%29.95 "Hg10 mi
2:00 AM73 °FClear.1 mph74%29.95 "Hg10 mi
1:30 AM73 °FClear.2 mph74%29.95 "Hg10 mi
1:00 AM73 °FClear.1 mph74%29.95 "Hg10 mi
12:30 AM75 °FClear.No wind69%29.95 "Hg10 mi
12:00 AM75 °FClear.2 mph69%29.95 "Hg10 mi
11:30 PM
Thu, Aug 25
77 °FClear.3 mph65%29.95 "Hg10 mi
11:00 PM79 °FClear.3 mph58%29.92 "Hg10 mi
10:30 PM81 °FClear.5 mph54%29.92 "Hg10 mi
10:00 PM82 °FClear.5 mph51%29.92 "Hg10 mi
9:30 PM84 °FSunny.5 mph48%29.92 "Hg10 mi
9:00 PM86 °FSunny.3 mph43%29.92 "Hg10 mi
8:30 PM88 °FSunny.3 mph43%29.92 "Hg10 mi
8:09 PM90 °FSunny.5 mph41%29.92 "Hg10 mi
8:00 PM91 °FSunny.5 mph36%29.92 "Hg10 mi
Weather by CustomWeather, © 2016

See weather overviewHow to use our weather pages